Location: ??
(34.7252°N, 135.5457°E)
Time: 08:26:37
(UTC+00:00)

Meteor PRIRODA - Pass Details

Date: 24 September 2020
Orbit: 489 x 511 km, 97.6° (Epoch: 29 October)

Event Time Altitude Azimuth Distance (km) Brightness Sun altitude
Rises 19:59:24 0° 14° (NNE) 2,584 7.5 -10.8°
Reaches altitude 10° 20:01:30 10° 17° (NNE) 1,694 6.6 -10.4°
Maximum altitude 20:05:07 68° 101° (ESE) 534 4.0 -9.6°
Drops below altitude 10° 20:08:42 10° 185° (S) 1,673 6.2 -8.9°
Sets 20:10:46 0° 187° (S) 2,548 7.1 -8.5°
